TimeEST,TemperatureF,Dew PointF,Humidity,Sea Level PressureIn,VisibilityMPH,Wind Direction,Wind SpeedMPH,Gust SpeedMPH,PrecipitationIn,Events,Conditions,WindDirDegrees,DateUTC
12:53 AM,35.1,32.0,89,30.12,-9999.0,Calm,Calm,-,N/A,,Unknown,0,2012-11-25 05:53:00
1:53 AM,34.0,30.9,89,30.13,-9999.0,Calm,Calm,-,N/A,,Unknown,0,2012-11-25 06:53:00
2:53 AM,32.0,28.9,88,30.13,-9999.0,Calm,Calm,-,N/A,,Unknown,0,2012-11-25 07:53:00
3:53 AM,30.9,28.0,89,30.14,-9999.0,Calm,Calm,-,N/A,,Unknown,0,2012-11-25 08:53:00
4:53 AM,30.0,27.0,88,30.14,-9999.0,Calm,Calm,-,N/A,,Unknown,0,2012-11-25 09:53:00
5:53 AM,30.0,27.0,88,30.14,-9999.0,NE,3.5,-,N/A,,Unknown,40,2012-11-25 10:53:00
6:53 AM,30.0,27.0,88,30.16,-9999.0,Calm,Calm,-,N/A,,Unknown,0,2012-11-25 11:53:00
7:53 AM,32.0,28.9,88,30.18,-9999.0,Calm,Calm,-,N/A,,Unknown,0,2012-11-25 12:53:00
8:53 AM,45.0,32.0,60,30.21,-9999.0,Calm,Calm,-,N/A,,Unknown,0,2012-11-25 13:53:00
9:53 AM,51.1,28.9,43,30.22,-9999.0,NNE,3.5,-,N/A,,Unknown,20,2012-11-25 14:53:00
10:53 AM,57.0,26.1,30,30.22,-9999.0,Calm,Calm,-,N/A,,Unknown,0,2012-11-25 15:53:00
11:53 AM,62.1,25.0,24,30.19,-9999.0,WNW,3.5,-,N/A,,Unknown,300,2012-11-25 16:53:00
12:53 PM,64.0,23.0,21,30.17,-9999.0,Variable,3.5,-,N/A,,Unknown,0,2012-11-25 17:53:00
1:53 PM,66.0,23.0,20,30.14,-9999.0,WNW,5.8,-,N/A,,Unknown,290,2012-11-25 18:53:00
2:53 PM,66.9,21.9,18,30.12,-9999.0,WNW,5.8,-,N/A,,Unknown,300,2012-11-25 19:53:00
3:53 PM,66.9,21.9,18,30.12,-9999.0,North,4.6,-,N/A,,Unknown,350,2012-11-25 20:53:00
4:53 PM,64.9,25.0,22,30.12,-9999.0,Calm,Calm,-,N/A,,Unknown,0,2012-11-25 21:53:00
5:53 PM,55.0,30.9,40,30.13,-9999.0,Calm,Calm,-,N/A,,Unknown,0,2012-11-25 22:53:00
6:53 PM,46.0,33.1,61,30.15,-9999.0,Calm,Calm,-,N/A,,Unknown,0,2012-11-25 23:53:00
7:53 PM,42.1,33.1,70,30.17,-9999.0,Calm,Calm,-,N/A,,Unknown,0,2012-11-26 00:53:00
8:53 PM,39.0,33.1,79,30.17,-9999.0,Calm,Calm,-,N/A,,Unknown,0,2012-11-26 01:53:00
9:53 PM,37.0,32.0,82,30.18,-9999.0,Calm,Calm,-,N/A,,Unknown,0,2012-11-26 02:53:00
10:53 PM,35.1,30.9,85,30.18,-9999.0,Calm,Calm,-,N/A,,Unknown,0,2012-11-26 03:53:00
11:53 PM,34.0,30.0,85,30.18,-9999.0,Calm,Calm,-,N/A,,Unknown,0,2012-11-26 04:53:00